This is the latest recevied weather packets stored in our database for station/object IW1EYZ-3. If no packets are shown the sender has not sent any weather packets the latest 10 day(s).
| Time | Temp. | Humidity | Pressure | Rain* | Wind** | Luminosity | Snow |
|---|---|---|---|---|---|---|---|
| 1777002532 | 13.33° C | 72% | 1020.1 hPa | - | - | - | - |
| 1777001331 | 13.89° C | 71% | 1020 hPa | - | - | - | - |
| 1777000131 | 13.89° C | 69% | 1019.9 hPa | - | - | - | - |
| 1776998931 | 13.89° C | 65% | 1019.9 hPa | - | - | - | - |
| 1776997730 | 13.89° C | 68% | 1019.9 hPa | - | - | - | - |
| 1776996530 | 13.89° C | 69% | 1020 hPa | - | - | - | - |
| 1776995330 | 14.44° C | 67% | 1020.1 hPa | - | - | - | - |
| 1776994129 | 13.89° C | 64% | 1020.1 hPa | - | - | - | - |
| 1776992929 | 14.44° C | 64% | 1020 hPa | - | - | - | - |
| 1776991729 | 14.44° C | 62% | 1020.1 hPa | - | - | - | - |
| 1776990528 | 14.44° C | 61% | 1020.2 hPa | - | - | - | - |
| 1776989328 | 14.44° C | 61% | 1020.3 hPa | - | - | - | - |
| 1776988128 | 14.44° C | 61% | 1020.4 hPa | - | - | - | - |
| 1776986927 | 15° C | 60% | 1020.6 hPa | - | - | - | - |
| 1776985727 | 15° C | 60% | 1020.8 hPa | - | - | - | - |
| 1776984527 | 15° C | 60% | 1020.8 hPa | - | - | - | - |
| 1776983326 | 15.56° C | 59% | 1020.9 hPa | - | - | - | - |
| 1776982126 | 15° C | 59% | 1020.9 hPa | - | - | - | - |
| 1776980926 | 15.56° C | 58% | 1021.1 hPa | - | - | - | - |
| 1776979725 | 15.56° C | 58% | 1021.2 hPa | - | - | - | - |
| 1776978525 | 16.11° C | 57% | 1021.1 hPa | - | - | - | - |
| 1776977325 | 16.11° C | 56% | 1021.2 hPa | - | - | - | - |
| 1776976125 | 16.67° C | 55% | 1021 hPa | - | - | - | - |
| 1776974924 | 16.67° C | 55% | 1021.1 hPa | - | - | - | - |
| 1776973724 | 16.67° C | 54% | 1020.9 hPa | - | - | - | - |
* Rain since midnight (hover to see other rain measurements)
** Current wind speed in m/s (hover to see current wind gust speed)